Location: �terpigny
(49.8910°N, 2.9249°E)
Time: 11:36:51
(UTC+00:00)

RS-44 - Pass Details

Date: 08 July 2022
Orbit: 1175 x 1510 km, 82.5° (Epoch: 11 August)

Event Time Altitude Azimuth Distance (km) Brightness Sun altitude
Rises 22:23:26 0° 262° (W) 4,530 ? -15.0°
Reaches altitude 10° 22:28:10 10° 285° (WNW) 3,610 ? -15.3°
Maximum altitude 22:32:37 15° 317° (NW) 3,295 ? -15.5°
Drops below altitude 10° 22:37:09 10° 348° (NNW) 3,676 ? -15.8°
Sets 22:42:06 0° 11° (N) 4,666 ? -16.0°
